STARLINK-4527, 53436

Orbit data source: Space-Track

STARLINK-4527, 53436 is a payload satellite owned by SpaceX/Seattle (US) in LEO that was launched on Wed, 10 Aug 2022 UTC via an FALCON 9 launch vehicle from the Air Force Eastern Test Range (AFETR). Payload-class satellites include a variety of spacecraft equipped with specific instruments for various scientific and technological missions. These include communications satellites like Starlink; space stations such as the ISS; scientific satellites like the Hubble; Earth observation satellites from companies like Planet Labs, Umbra, and HawkEye 360; GPS; miniature CubeSats for education and research; and military/defense satellites.

Loading next visibility...
Identifier
53436, 2022-097BA
Orbit
LEO
Country
Flag of USUS
Related business
Manufacturer
SpaceX/Seattle
Mission
Operational Commercial Communications
Bus & Motor
STARLINK, Unknown motor
Mass
297 kg wet, ~275 kg dry
Launch date (UTC)
2022-08-10 (4 years ago)
Launch vehicle
FALCON 9
Launch site
Air Force Eastern Test Range (AFETR)
Object type
Payload
Rocket body
Debris
Shape & HBR
Box + 1 Pan, 10.1 m
Radar Cross Section
13.562 m², Large (>1 m²)

Expand to show TLE details & history
Last TLE update: 22 hours ago

TLE from 22 hours ago
0 STARLINK-4527
1 53436U 22097BA  26144.10642902 -.00000028  00000-0  16327-4 0  9996
2 53436  53.2163 125.2436 0001257  77.6422 282.4711 15.08835992210175
Epoch: 2026-05-24T02:33Z
TLE epoch observation values (Epoch: 2026-05-24T02:33:15.467Z)
Latitude
Longitude
-154.78418°
Altitude
540.465 km
Speed
7.593 km/s
True Right ascension
08h 20m 58s
True Declination
0° 00' 00"
Sunlit
Object was in daylight at epoch
Visualization orbit readout
Latitude
Unknown
Longitude
Unknown
Altitude
Unknown
Speed
Unknown
Apparent Right ascension
Unknown
Apparent Declination
Unknown
Sunlit
N/A
Visualization observer readout
Local Sidereal Time
09:44:06
Azimuth
Unknown
Elevation
Unknown
Doppler factor
Unknown
Orbital elements
Apogee altitude
540.87 km
Perigee altitude
539.131 km
Semi-major axis
6,918.138 km
Eccentricity
0.00013
Inclination
53.2163°
RAAN
125.2436°
Arg. of periapsis
77.6422°
True anomaly
282.45704°
Mean anomaly
282.4711°
Eccentric anomaly
282.46407°
Mean motion
3.77189 °/min
Orbital period
95.44 mins
BSTAR
0.000016327
Loading maneuver chart data...
Computing Atmospheric mass density...
Loading historical data...
Loading historical data...
Loading historical data...
Loading historical data...
Loading historical data...
Loading historical data...
Loading historical data...

Documentation

Showing up to 5 results
|